Date,TemperatureHighF,TemperatureAvgF,TemperatureLowF,DewpointHighF,DewpointAvgF,DewpointLowF,HumidityHigh,HumidityAvg,HumidityLow,PressureMaxIn,PressureMinIn,WindSpeedMaxMPH,WindSpeedAvgMPH,GustSpeedMaxMPH,PrecipitationSumIn
2013-7-1,76.0,74.1,73.0,74.0,71.4,70.0,92,91,90,30.05,29.90,6,3,18,0.00
2013-7-2,83.0,76.1,73.0,76.0,72.1,69.0,92,87,77,30.22,30.05,7,3,21,0.02
2013-7-3,85.0,78.0,71.0,78.0,72.9,68.0,92,85,76,30.27,30.20,6,2,19,0.01
2013-7-4,88.0,78.9,73.0,78.0,73.5,70.0,92,84,67,30.29,30.24,4,1,19,0.00
2013-7-5,92.0,83.3,77.0,77.0,74.0,72.0,86,74,58,30.22,30.15,4,1,15,0.00
2013-7-6,95.0,84.5,75.0,78.0,75.1,71.0,90,75,54,30.19,30.07,4,1,20,0.00
2013-7-7,94.0,84.9,74.0,78.0,74.6,70.0,90,72,57,30.11,29.99,6,2,25,0.00
2013-7-8,89.0,78.9,73.0,74.0,69.4,-99.9,88,76,59,30.10,30.02,7,1,14,0.03
2013-7-9,89.0,79.8,73.0,78.0,73.3,69.0,92,82,64,30.11,30.02,2,0,12,0.05
2013-7-10,88.0,77.1,71.0,78.0,70.5,-99.9,92,83,69,30.05,29.87,5,1,17,0.15
2013-7-11,82.0,76.9,72.0,76.0,72.1,68.0,91,85,79,29.93,29.86,6,1,19,0.16
2013-7-12,74.0,71.4,69.0,72.0,69.0,67.0,92,91,88,30.02,29.91,10,2,23,1.08
2013-7-13,86.0,76.9,69.0,79.0,72.6,67.0,92,87,72,30.30,30.02,5,1,18,0.00
2013-7-14,92.0,81.0,75.0,77.0,73.9,71.0,92,80,56,30.35,30.29,2,0,13,0.00
2013-7-15,93.0,82.3,74.0,80.0,74.2,69.0,92,78,55,30.30,30.16,4,1,15,0.00
2013-7-16,93.0,83.9,75.0,76.0,72.7,69.0,86,71,50,30.19,30.15,8,1,15,0.00
2013-7-17,96.0,81.9,73.0,78.0,71.6,69.0,92,73,47,30.19,30.10,1,0,7,0.00
2013-7-18,97.0,84.4,76.0,80.0,75.6,70.0,90,76,54,30.11,30.00,3,0,13,0.00
2013-7-19,96.0,87.6,79.0,81.0,77.3,74.0,86,72,58,30.02,29.87,5,1,16,0.00
2013-7-20,94.0,86.3,82.0,80.0,75.4,-99.9,82,72,59,29.89,29.79,9,3,21,0.00
2013-7-21,93.0,80.7,72.0,78.0,73.1,69.0,92,79,55,29.95,29.87,6,1,19,0.42
2013-7-22,88.0,78.3,73.0,77.0,72.9,70.0,91,84,66,29.93,29.79,3,0,12,0.00
2013-7-23,89.0,81.2,75.0,79.0,74.8,71.0,91,82,66,29.78,29.61,4,1,15,0.06
2013-7-24,90.0,81.6,72.0,76.0,71.3,67.0,91,72,56,29.88,29.67,7,1,16,0.01
2013-7-25,75.0,68.1,64.0,68.0,60.7,56.0,86,78,66,30.02,29.88,11,7,21,0.01
2013-7-26,82.0,72.1,64.0,69.0,63.8,59.0,86,76,59,30.08,29.99,6,2,13,0.00
2013-7-27,84.0,74.9,63.0,70.0,65.9,59.0,92,75,55,30.08,29.96,2,0,10,0.00
2013-7-28,81.0,73.4,65.0,74.0,68.7,62.0,92,85,75,29.98,29.93,5,1,17,0.00
2013-7-29,87.0,75.5,65.0,71.0,66.0,58.0,92,75,42,30.13,29.96,6,1,10,0.01
2013-7-30,85.0,72.1,58.0,63.0,58.8,54.0,90,66,42,30.19,30.14,5,1,15,0.00
2013-7-31,84.0,72.9,60.0,68.0,62.5,55.0,91,71,56,30.16,30.06,3,0,12,0.00